Zurück zum Katalog

FENGYUN 1C DEB

AktivPO
NORAD 36703·DEBRIS·🇨🇳 China

Gestartet May 10, 1999 von Taiyuan Satellite Launch Center

Loading…

Nächste Überflüge (nächste 24 Stunden)

TLE

AlterndSource: Space-Track

Epoche: Sep 10, 2026, 04:31 UTC

1 36703U 99025DZZ 26253.18856902  .00003976  00000-0  16666-2 0  9993
2 36703  97.8167  35.4084 0097717 221.0224 138.3579 14.23894544621310

Verfolge FENGYUN 1C DEB in Echtzeit mit AllMySat

Download on the App Store